When you browse on this site, cookies collect data to enhance your experience and personalize the content and advertising you see.
Visit our Privacy Policy to learn more. By continuing to use the site, you agree to this use of cookies and data.
  • In United Kingdom
  • List of Countries
  • For 7 days
  • Water Temperature
  • Weather Map
  • Weather Widgets
  • user-avatar
    Login

    Hourly Weather Kengtung

    Today, 16 September, Monday

    Time Temperature Precipitation Wind Pressure Humidity
    00:00 +23°C° 0.1 mm 0 mps 699 mmHg 79%
    01:00 +23°C° 0 mm 0 mps 699 mmHg 80%
    02:00 +22°C° 0 mm 0 mps 699 mmHg 82%
    03:00 +22°C° 0 mm 0 mps 698 mmHg 84%
    04:00 +22°C° 0 mm 0 mps 698 mmHg 86%
    05:00 +21°C° 0 mm 0 mps 698 mmHg 87%
    06:00 +21°C° 0 mm 0 mps 699 mmHg 88%
    07:00 +22°C° 0 mm 0 mps 700 mmHg 87%
    08:00 +25°C° 0 mm 0 mps 700 mmHg 75%
    09:00 +28°C° 0 mm 0 mps 700 mmHg 63%
    10:00 +31°C° 0 mm 0 mps 700 mmHg 51%
    11:00 +33°C° 0 mm 0 mps 700 mmHg 46%
    12:00 +34°C° 0 mm 0 mps 699 mmHg 41%
    13:00 +35°C° 0 mm 0 mps 699 mmHg 36%
    14:00 +34°C° 0 mm 0 mps 698 mmHg 39%
    15:00 +33°C° 0 mm 0 mps 697 mmHg 42%
    16:00 +32°C° 0 mm 0 mps 696 mmHg 46%
    17:00 +30°C° 0 mm 0 mps 696 mmHg 53%
    18:00 +28°C° 0 mm 0 mps 696 mmHg 61%
    19:00 +26°C° 0 mm 0 mps 696 mmHg 68%
    20:00 +25°C° 0 mm 0 mps 697 mmHg 72%
    21:00 +24°C° 0 mm 0 mps 698 mmHg 76%
    22:00 +23°C° 0 mm 0 mps 698 mmHg 79%
    23:00 +23°C° 0 mm 0 mps 698 mmHg 79%

    Tomorrow, 17 September, Tuesday

    Time Temperature Precipitation Wind Pressure Humidity
    00:00 +23°C° 0 mm 0 mps 699 mmHg 79%
    01:00 +23°C° 0 mm 0 mps 699 mmHg 79%
    02:00 +22°C° 0 mm 0 mps 698 mmHg 81%
    03:00 +22°C° 0 mm 0 mps 698 mmHg 83%
    04:00 +21°C° 0 mm 0 mps 698 mmHg 86%
    05:00 +22°C° 0 mm 0 mps 698 mmHg 86%
    06:00 +22°C° 0 mm 0 mps 699 mmHg 86%
    07:00 +22°C° 0 mm 0 mps 699 mmHg 86%
    08:00 +25°C° 0 mm 0 mps 700 mmHg 74%
    09:00 +29°C° 0 mm 0 mps 700 mmHg 62%
    10:00 +32°C° 0 mm 0 mps 701 mmHg 50%
    11:00 +32°C° 0 mm 0 mps 700 mmHg 47%
    12:00 +33°C° 0 mm 0 mps 700 mmHg 44%
    13:00 +34°C° 0 mm 0 mps 700 mmHg 42%
    14:00 +33°C° 0 mm 0 mps 699 mmHg 44%
    15:00 +33°C° 0 mm 0 mps 698 mmHg 46%
    16:00 +32°C° 0 mm 0 mps 698 mmHg 49%
    17:00 +30°C° 0 mm 0 mps 698 mmHg 57%
    18:00 +28°C° 0 mm 0 mps 698 mmHg 66%
    19:00 +26°C° 0 mm 0 mps 698 mmHg 74%
    20:00 +25°C° 0 mm 0 mps 698 mmHg 76%
    21:00 +25°C° 0 mm 0 mps 699 mmHg 77%
    22:00 +24°C° 0 mm 0 mps 700 mmHg 78%
    23:00 +24°C° 0.1 mm 0 mps 700 mmHg 80%

    Day after tomorrow, 18 September, Wednesday

    Time Temperature Precipitation Wind Pressure Humidity
    00:00 +23°C° 0.1 mm 0 mps 700 mmHg 82%
    01:00 +23°C° 0.1 mm 0 mps 699 mmHg 84%
    02:00 +22°C° 0.7 mm 0 mps 699 mmHg 88%
    03:00 +22°C° 0.7 mm 0 mps 699 mmHg 91%
    04:00 +21°C° 0.7 mm 0 mps 699 mmHg 94%
    05:00 +21°C° 0.2 mm 0 mps 699 mmHg 94%
    06:00 +21°C° 0.2 mm 0 mps 700 mmHg 94%
    07:00 +22°C° 0.2 mm 0 mps 700 mmHg 94%
    08:00 +24°C° 0.2 mm 0 mps 701 mmHg 86%
    09:00 +27°C° 0.2 mm 0 mps 701 mmHg 78%
    10:00 +30°C° 0.2 mm 0 mps 702 mmHg 70%
    11:00 +31°C° 0.4 mm 0 mps 701 mmHg 62%
    12:00 +33°C° 0.4 mm 0 mps 701 mmHg 53%
    13:00 +34°C° 0.4 mm 0 mps 700 mmHg 44%
    14:00 +34°C° 0.1 mm 0 mps 699 mmHg 45%
    15:00 +33°C° 0.1 mm 0 mps 699 mmHg 45%
    16:00 +33°C° 0.1 mm 0 mps 698 mmHg 45%
    17:00 +31°C° 0 mm 0 mps 698 mmHg 54%
    18:00 +28°C° 0 mm 0 mps 698 mmHg 64%
    19:00 +26°C° 0 mm 0 mps 698 mmHg 74%
    20:00 +25°C° 0 mm 0 mps 699 mmHg 76%
    21:00 +24°C° 0 mm 0 mps 700 mmHg 78%
    22:00 +24°C° 0 mm 0 mps 700 mmHg 81%
    23:00 +23°C° 0.4 mm 0 mps 700 mmHg 85%

    19 September, Thursday

    Time Temperature Precipitation Wind Pressure Humidity
    00:00 +22°C° 0.4 mm 0 mps 700 mmHg 89%
    01:00 +22°C° 0.4 mm 0 mps 700 mmHg 93%
    02:00 +21°C° 0.2 mm 0 mps 699 mmHg 94%
    03:00 +21°C° 0.2 mm 0 mps 699 mmHg 95%
    04:00 +21°C° 0.2 mm 0 mps 699 mmHg 96%
    05:00 +21°C° 0.4 mm 0 mps 700 mmHg 96%
    06:00 +21°C° 0.4 mm 0 mps 700 mmHg 97%
    07:00 +21°C° 0.4 mm 0 mps 700 mmHg 97%
    08:00 +23°C° 0.6 mm 0 mps 701 mmHg 96%
    09:00 +24°C° 0.6 mm 0 mps 701 mmHg 94%
    10:00 +26°C° 0.6 mm 0 mps 701 mmHg 93%
    11:00 +26°C° 1.4 mm 0 mps 701 mmHg 91%
    12:00 +27°C° 1.4 mm 0 mps 700 mmHg 89%
    13:00 +28°C° 1.4 mm 0 mps 700 mmHg 87%
    14:00 +27°C° 1.3 mm 0 mps 699 mmHg 89%
    15:00 +27°C° 1.3 mm 0 mps 699 mmHg 90%
    16:00 +27°C° 1.3 mm 0 mps 698 mmHg 92%
    17:00 +25°C° 0.2 mm 0 mps 698 mmHg 93%
    18:00 +24°C° 0.2 mm 0 mps 698 mmHg 94%
    19:00 +23°C° 0.2 mm 0 mps 699 mmHg 95%
    20:00 +23°C° 0 mm 0 mps 699 mmHg 95%
    21:00 +22°C° 0 mm 0 mps 700 mmHg 95%
    22:00 +22°C° 0 mm 0 mps 700 mmHg 96%
    23:00 +21°C° 0 mm 0 mps 700 mmHg 96%

    20 September, Friday

    Time Temperature Precipitation Wind Pressure Humidity
    00:00 +21°C° 0 mm 0 mps 700 mmHg 96%
    01:00 +21°C° 0 mm 0 mps 699 mmHg 96%
    02:00 +21°C° 0.1 mm 0 mps 699 mmHg 96%
    03:00 +21°C° 0.1 mm 0 mps 699 mmHg 96%
    04:00 +20°C° 0.1 mm 0 mps 699 mmHg 97%
    05:00 +21°C° 0.1 mm 0 mps 699 mmHg 96%
    06:00 +21°C° 0.1 mm 0 mps 699 mmHg 96%
    07:00 +21°C° 0.1 mm 0 mps 700 mmHg 95%
    08:00 +23°C° 0.5 mm 0 mps 700 mmHg 91%
    09:00 +25°C° 0.5 mm 0 mps 701 mmHg 86%
    10:00 +28°C° 0.5 mm 0 mps 701 mmHg 82%
    11:00 +28°C° 1.6 mm 0 mps 700 mmHg 83%
    12:00 +28°C° 1.6 mm 0 mps 700 mmHg 83%
    13:00 +29°C° 1.6 mm 0 mps 699 mmHg 84%
    14:00 +28°C° 1.5 mm 0 mps 698 mmHg 86%
    15:00 +28°C° 1.5 mm 0 mps 698 mmHg 87%
    16:00 +28°C° 1.5 mm 0 mps 697 mmHg 89%
    17:00 +26°C° 0.6 mm 0 mps 697 mmHg 91%
    18:00 +25°C° 0.6 mm 0 mps 697 mmHg 93%
    19:00 +23°C° 0.6 mm 0 mps 698 mmHg 95%
    20:00 +23°C° 0 mm 0 mps 698 mmHg 95%
    21:00 +23°C° 0 mm 0 mps 699 mmHg 96%
    22:00 +22°C° 0 mm 0 mps 699 mmHg 96%
    23:00 +22°C° 0 mm 0 mps 699 mmHg 96%

    21 September, Saturday

    Time Temperature Precipitation Wind Pressure Humidity
    00:00 +21°C° 0 mm 0 mps 699 mmHg 96%
    01:00 +21°C° 0 mm 0 mps 699 mmHg 96%
    02:00 +21°C° 0 mm 0 mps 698 mmHg 97%
    03:00 +21°C° 0 mm 0 mps 698 mmHg 97%
    04:00 +21°C° 0 mm 0 mps 698 mmHg 97%
    05:00 +21°C° 0 mm 0 mps 698 mmHg 97%
    06:00 +21°C° 0 mm 0 mps 699 mmHg 96%
    07:00 +21°C° 0 mm 0 mps 699 mmHg 96%
    08:00 +23°C° 0.4 mm 0 mps 700 mmHg 93%
    09:00 +25°C° 0.4 mm 0 mps 700 mmHg 90%
    10:00 +27°C° 0.4 mm 0 mps 701 mmHg 87%
    11:00 +27°C° 1.3 mm 0 mps 700 mmHg 88%
    12:00 +27°C° 1.3 mm 0 mps 700 mmHg 89%
    13:00 +27°C° 1.3 mm 0 mps 700 mmHg 89%
    14:00 +27°C° 1.4 mm 0 mps 699 mmHg 91%
    15:00 +27°C° 1.4 mm 0 mps 699 mmHg 92%
    16:00 +26°C° 1.4 mm 0 mps 698 mmHg 93%
    17:00 +25°C° 0.8 mm 0 mps 699 mmHg 95%
    18:00 +24°C° 0.8 mm 0 mps 699 mmHg 96%
    19:00 +23°C° 0.8 mm 0 mps 699 mmHg 97%
    20:00 +22°C° 0.4 mm 0 mps 700 mmHg 97%
    21:00 +22°C° 0.4 mm 0 mps 701 mmHg 98%
    22:00 +23°C° 0.4 mm 1 mps 701 mmHg 98%
    23:00 +23°C° 0 mm 1 mps 701 mmHg 98%
    Show more